Location: Bukit Lungun
(2.6833°N, 113.9667°E)
Time: 11:59:52
(UTC+00:00)

ATLAS 5 CENTAUR R/B - Pass Details

Date: 02 March 2021
Orbit: 516 x 1142 km, 63.3° (Epoch: 19 April)

Event Time Altitude Azimuth Distance (km) Brightness Sun altitude
Exits shadow 20:36:53 26° 76° (ENE) 1,055 3.3 -29.9°
Drops below altitude 10° 20:39:02 10° 49° (NE) 1,735 4.3 -29.4°
Sets 20:41:18 0° 39° (NE) 2,619 5.2 -28.8°
